Location: Aldenham
(51.6667°N, 0.3500°W)
Time: 08:32:28
(UTC+00:00)

Explorer 7 - Pass Details

Date: 17 February 2026
Orbit: 430 x 541 km, 50.2° (Epoch: 12 March)

Event Time Altitude Azimuth Distance (km) Brightness Sun altitude
Rises 16:53:24 0° 248° (WSW) 2,458 13.7 3.0°
Reaches altitude 10° 16:55:31 10° 244° (WSW) 1,604 11.9 2.7°
Maximum altitude 16:59:04 57° 165° (SSE) 563 7.0 2.2°
Drops below altitude 10° 17:02:47 10° 87° (E) 1,674 8.7 1.6°
Sets 17:05:02 0° 83° (E) 2,579 9.6 1.3°
